Location: Plum
(40.5000°N, 79.7500°W)
Time: 17:17:08
(UTC-04:00)

MOZ.5/SAFIR/RUBIN 5/SL-8 - Visible Passes

Search period start: 27 May 2018 00:00
Search period end: 06 June 2018 00:00
Orbit: 678 x 706 km, 98.0° (Epoch: 27 May)

Date Brightness Start Highest point End Pass type
(mag) Time Alt. Az. Time Alt. Az. Time Alt. Az.
27 May 3.8 03:39:02 26° SSE 03:41:44 84° ENE 03:46:31 10° N visible
28 May 5.9 02:40:23 10° ESE 02:44:05 23° ENE 02:47:47 10° NNE visible
28 May 4.4 04:19:03 23° SSW 04:21:24 37° W 04:25:50 10° NNW visible
29 May 4.4 03:20:23 21° SE 03:23:25 55° ENE 03:28:04 10° N visible
29 May 5.5 04:59:04 11° WSW 05:01:18 15° W 05:04:02 10° NW visible
30 May 6.4 02:23:09 10° E 02:25:56 16° ENE 02:28:42 10° NNE visible
30 May 3.9 04:00:25 26° S 04:03:00 58° W 04:07:42 10° NNW visible
31 May 5.2 03:01:47 15° SE 03:05:10 36° ENE 03:09:30 10° N visible
31 May 5.1 04:40:26 16° SW 04:42:47 23° W 04:46:33 10° NW visible
01 Jun 6.7 02:07:06 10° ENE 02:07:49 10° ENE 02:08:33 10° NE visible
01 Jun 3.7 03:41:48 25° SSE 03:44:39 89° W 03:49:24 10° NNW visible
02 Jun 5.8 02:43:11 10° ESE 02:46:58 24° ENE 02:50:45 10° NNE visible
02 Jun 4.5 04:21:50 21° SSW 04:24:20 35° W 04:28:40 10° NNW visible
03 Jun 4.3 03:23:12 21° SSE 03:26:19 59° ENE 03:31:00 10° N visible
03 Jun 5.6 05:01:52 10° WSW 05:04:14 14° W 05:06:40 10° WNW visible
04 Jun 6.3 02:25:50 10° ESE 02:28:47 17° ENE 02:31:45 10° NNE visible
04 Jun 3.9 04:03:14 24° SSW 04:05:55 53° W 04:10:34 10° NNW visible
05 Jun 5.0 03:04:36 15° SE 03:08:03 39° ENE 03:12:26 10° N visible
05 Jun 5.1 04:43:17 15° SW 04:45:43 21° W 04:49:18 10° NW visible
